Location: Wanzleben
(52.0609°N, 11.4408°E)
Time: 10:49:11
(UTC+00:00)

HJ-1C - Pass Details

Date: 18 September 2020
Orbit: 432 x 443 km, 97.1° (Epoch: 26 October)

Event Time Altitude Azimuth Distance (km) Brightness Sun altitude
Rises 18:25:37 0° 178° (S) 2,398 6.9 -10.6°
Reaches altitude 10° 18:27:40 10° 184° (S) 1,537 6.0 -10.9°
Maximum altitude 18:30:52 48° 260° (W) 578 4.4 -11.4°
Drops below altitude 10° 18:34:06 10° 337° (NNW) 1,554 6.7 -11.8°
Sets 18:36:11 0° 343° (NNW) 2,430 7.7 -12.1°
